Location: Elstree
(51.6403°N, 0.2969°W)
Time: 10:51:59
(UTC+00:00)

Tiangong - Pass Details

Date: 05 December 2022
Orbit: 382 x 386 km, 41.5° (Epoch: 07 February)

Event Time Altitude Azimuth Distance (km) Brightness Sun altitude
Rises 18:37:27 0° 245° (WSW) 2,250 2.9 -24.4°
Reaches altitude 10° 18:40:23 10° 215° (SW) 1,397 1.2 -24.8°
Enters shadow 18:41:00 12° 204° (SSW) 1,301 0.9 -24.9°
